World > North America > United States > Mississippi > Boyer  

Boyer, MS Hourly Weather Updates

Feedback E-mail the Weather

Quick Clicks

Boyer, MS Weather Maps

°F °C°F °C
Boyer Weather Map
UTC Time: 6/23/2024, 05:38
Your Time:

Boyer, MS Regional Weather

Expires:202406230600;;504311
ASUS44 KJAN 230510
RWRMS 

MISSISSIPPI HOURLY WEATHER ROUNDUP
NATIONAL WEATHER SERVICE JACKSON MS
1200 AM CDT SUN JUN 23 2024

NOTE: "FAIR: INDICATES FEW OR NO CLOUDS BELOW 12,000 FEET WITH NO
SIGNIFICANT WEATHER AND/OR OBSTRUCTIONS TO VISIBILITY.


MSZ001>002-007>008-010>013-018>021-025>028-034>036-230600-
NORTHWEST MISSISSIPPI
  
CITY           SKY/WX    TMP DP  RH WIND       PRES   REMARKS
BATESVILLE     CLEAR     72  70  94 CALM      29.98S                  
CLARKSDALE       N/A     81  81 100 S5        29.98F HX  91           
GREENWOOD      CLEAR     76  71  85 CALM      29.99S                  
GREENVILLE     CLEAR     80  70  71 S7        29.98S                  
OLIVE BRANCH     N/A     77  68  73 S7        29.97F                  
OXFORD           N/A     72  68  88 CALM        N/A                   
TUNICA         CLEAR     75  73  93 S6        29.97F                  
$$


SKY/WX - Weather  TMP - Temperature  DP - Dew Point  RH - Humidity
WIND - Wind Direction/Speed PRES - Barometric Pressure VSB - Visibility
WCI - Wind Chill Index E13G22 Wind - East Wind 13 mph/Gusts of 22 mph

Trending Headlines

Trending Entertainment Headlines

Boyer Radar Loop

Use the map search tool if you want to place a location marker on the radar map...

Boyer Quick Facts

National Two Day Weather Forecast


E-mail the Boyer Weather Forecast

Voice your opinion or tell us about page issues...